EW4382 Weather Reports


time (UTC)temp
F
wind
direction
speed
knots
gust
knots
rain 1hr
in
rain 24hr
in
rain mn
in
humidity
%
barometer
mb
20260507220009 43 14 0.0 0.9 0.00 0.00 0.00 53 1019.6
20260507214505 44 14 0.0 1.7 0.00 0.00 0.00 55 1019.5
20260507213101 45 14 0.0 0.9 0.00 0.00 0.00 56 1019.3
20260507211623 45 14 0.0 1.7 0.00 0.00 0.00 55 1019.0
20260507210053 46 14 0.0 0.9 0.00 0.00 0.00 55 1018.9
20260507204549 48 14 0.0 1.7 0.00 0.00 0.00 51 1018.7
20260507203043 49 14 0.0 2.6 0.00 0.00 0.00 46 1018.6
20260507201538 51 14 0.9 5.2 0.00 0.00 0.00 41 1018.4
20260507200037 50 55 1.7 5.2 0.00 0.00 0.00 43 1018.3
20260507194535 51 335 1.7 4.3 0.00 0.00 0.00 39 1017.9
20260507193028 52 338 2.6 4.3 0.00 0.00 0.00 41 1017.7
20260507191520 54 342 0.9 2.6 0.00 0.00 0.00 37 1017.5
20260507190015 55 342 1.7 4.3 0.00 0.00 0.00 34 1017.3
20260507184514 0 0.0 0.0 0.00 0.00 0.00 1017.1
20260507183009 0 0.0 0.0 0.00 0.00 0.00 1016.8
20260507181504 0 0.0 0.0 0.00 0.00 0.00 1016.7
20260507180059 0 0.0 0.0 0.00 0.00 0.00 1016.6
20260507174554 0 0.0 0.0 0.00 0.00 0.00 1016.4
20260507173054 0 0.0 0.0 0.00 0.00 0.00 1016.2
20260507171546 0 0.0 0.0 0.00 0.00 0.00 1016.1
20260507170042 0 0.0 0.0 0.00 0.00 0.00 1016.1
20260507164537 0 0.0 0.0 0.00 0.00 0.00 1016.0
20260507163032 0 0.0 0.0 0.00 0.00 0.00 1015.9
20260507161529 0 0.0 0.0 0.00 0.00 0.00 1015.9
20260507160032 0 0.0 0.0 0.00 0.00 0.00 1015.9
20260507154519 0 0.0 0.0 0.00 0.00 0.00 1015.8
20260507153015 0 0.0 0.0 0.00 0.00 0.00 1015.8
20260507151511 0 0.0 0.0 0.00 0.00 0.00 1015.7
20260507150010 0 0.0 0.0 0.00 0.00 0.00 1015.8
20260507144503 0 0.0 0.0 0.00 0.00 0.00 1015.7
20260507143103 63 246 4.3 9.6 0.00 0.00 0.00 18 1015.8
20260507141556 62 324 3.5 7.0 0.00 0.00 0.00 19 1015.8
20260507140103 62 308 2.6 7.0 0.00 0.00 0.00 18 1015.8
20260507134545 61 279 3.5 7.8 0.00 0.00 0.00 18 1015.8
20260507133041 60 46 3.5 9.6 0.00 0.00 0.00 18 1015.8
20260507131542 60 271 4.3 9.6 0.00 0.00 0.00 17 1015.8
20260507130032 60 237 4.3 11.3 0.00 0.00 0.00 20 1015.8
20260507124531 59 46 4.3 11.3 0.00 0.00 0.00 18 1015.7
20260507123026 59 302 2.6 7.8 0.00 0.00 0.00 18 1015.7
20260507121519 59 306 2.6 7.8 0.00 0.00 0.00 18 1015.6
20260507120014 59 277 4.3 10.4 0.00 0.00 0.00 19 1015.6
20260507114510 58 304 3.5 9.6 0.00 0.00 0.00 19 1015.6
20260507113006 60 347 3.5 8.7 0.00 0.00 0.00 18 1015.6
20260507111503 61 199 3.5 8.7 0.00 0.00 0.00 19 1015.6
20260507110059 60 197 3.5 7.0 0.00 0.00 0.00 20 1015.7
20260507104554 60 202 4.3 8.7 0.00 0.00 0.00 19 1015.7
20260507103048 59 223 2.6 7.0 0.00 0.00 0.00 22 1015.7
20260507101558 58 213 2.6 8.7 0.00 0.00 0.00 23 1015.7
20260507100039 56 320 4.3 9.6 0.00 0.00 0.00 22 1015.5
20260507094535 57 241 2.6 9.6 0.00 0.00 0.00 24 1015.5
20260507093032 56 296 2.6 7.8 0.00 0.00 0.00 23 1015.4
20260507091547 56 288 2.6 8.7 0.00 0.00 0.00 29 1015.4
20260507090021 56 211 2.6 9.6 0.00 0.00 0.00 31 1015.4
20260507084517 57 239 5.2 10.4 0.00 0.00 0.00 33 1015.5
20260507083017 54 275 4.3 9.6 0.00 0.00 0.00 37 1015.4
20260507081511 54 292 3.5 9.6 0.00 0.00 0.00 35 1015.3
20260507080008 55 243 5.2 10.4 0.00 0.00 0.00 38 1015.2
20260507074508 54 223 3.5 11.3 0.00 0.00 0.00 45 1015.1
20260507073110 54 237 3.5 9.6 0.00 0.00 0.00 49 1015.1
20260507071559 52 300 2.6 9.6 0.00 0.00 0.00 52 1015.1
20260507070134 51 266 3.5 7.0 0.00 0.00 0.00 53 1015.2
20260507064549 49 331 0.9 5.2 0.00 0.00 0.00 55 1015.1
20260507063041 49 325 3.5 7.8 0.00 0.00 0.00 54 1015.1
20260507061537 49 344 3.5 9.6 0.00 0.00 0.00 53 1015.1
20260507060033 50 311 2.6 7.0 0.00 0.00 0.00 50 1015.1
20260507054528 51 206 0.9 3.5 0.00 0.00 0.00 54 1015.0
20260507053024 48 209 0.9 3.5 0.00 0.00 0.00 55 1015.1
20260507051519 45 199 0.9 3.5 0.00 0.00 0.00 32 1014.9
20260507050029 42 186 0.0 0.9 0.00 0.00 0.00 13 1014.9
20260507044526 41 186 0.0 0.0 0.00 0.00 0.00 3 1014.8
20260507043007 39 186 0.0 0.9 0.00 0.00 0.00 1 1014.7
20260507041503 38 186 0.0 0.0 0.00 0.00 0.00 1 1014.7
20260507040059 36 186 0.0 0.0 0.00 0.00 0.00 1 1014.7
20260507034554 35 186 0.0 0.0 0.00 0.00 0.00 1 1014.5
20260507033050 35 186 0.0 1.7 0.00 0.00 0.00 1 1014.3
20260507031545 35 186 0.0 0.9 0.00 0.00 0.00 1 1014.2
20260507030043 35 186 0.0 0.0 0.00 0.00 0.00 1 1014.2
20260507024537 35 186 0.0 0.9 0.00 0.00 0.00 1 1014.1
20260507023034 36 186 0.0 1.7 0.00 0.00 0.00 12 1014.0
20260507021529 36 186 0.0 0.0 0.00 0.00 0.00 19 1013.9
20260507020024 37 186 0.0 1.7 0.00 0.00 0.00 34 1014.0
20260507014522 38 186 0.9 2.6 0.00 0.00 0.00 46 1013.8
20260507013015 40 186 0.0 0.0 0.00 0.00 0.00 52 1013.8
20260507011511 42 186 0.0 2.6 0.00 0.00 0.00 55 1013.6
20260507010009 43 186 2.6 4.3 0.00 0.00 0.00 56 1013.6
20260507004506 43 186 2.6 3.5 0.00 0.00 0.00 57 1013.5
20260507003004 44 184 2.6 6.1 0.00 0.00 0.00 57 1013.5
20260507001505 44 156 3.5 8.7 0.00 0.00 0.00 56 1013.5
20260507000101 45 188 3.5 8.7 0.00 0.00 0.00 56 1013.5
20260506234559 45 171 4.3 8.7 0.00 0.00 0.00 56 1013.5
20260506233057 45 182 1.7 6.1 0.00 0.00 0.00 53 1013.4
20260506231555 45 149 1.7 6.1 0.00 0.00 0.00 52 1013.5
20260506224550 45 144 1.7 4.3 0.00 0.00 0.00 52 1013.3
20260506223048 45 165 0.9 5.2 0.00 0.00 0.00 52 1013.3
20260506221548 45 186 1.7 4.3 0.00 0.00 0.00 49 1013.3